Regional Weather Roundup
Issued by NWS

Home | Current Version | Previous Version | Text Only | Print | Product List | Glossary Off
Versions: 1 2 3 4 5 6 7 8 9 10 11 12 13 14 15 16 17 18 19 20 21 22 23 24 25 26 27 28 29 30 31 32 33 34 35 36 37 38 39 40 41 42 43 44 45 46 47 48 49 50

656
ASUS43 KMKX 302100
RWRWI

WISCONSIN REGIONAL WEATHER ROUNDUP
NATIONAL WEATHER SERVICE MILWAUKEE/SULLIVAN WI
400 PM CDT SAT JUL 30 2016

NOTE: "FAIR" INDICATES FEW OR NO CLOUDS BELOW 12,000 FEET WITH NO
SIGNIFICANT WEATHER AND/OR OBSTRUCTIONS TO VISIBILITY.

WIZ001-002-006>008-014>016-023>028-302200-
NORTHWEST WISCONSIN

CITY           SKY/WX    TMP DP  RH WIND       PRES   REMARKS
SUPERIOR ARPT  PTSUNNY   68  60  77 NE6       30.04S
ASHLAND        SUNNY     78  63  59 N13       30.04S HX  80
HAYWARD        CLOUDY    78  55  44 SE7       30.04F
SIREN          SUNNY     81  55  41 S12       30.03S HX  80
CUMBERLAND     MOSUNNY   77  55  47 E5        30.04F
RICE LAKE      MOSUNNY   78  59  51 SE6       30.04F
CHETEK         CLOUDY    77  60  54 MISG      30.03F
LADYSMITH      SUNNY     80  55  42 SE3       30.06F HX  80
EAU CLAIRE     NOT AVBL
MENOMONIE      MOSUNNY   85  59  41 SE6       30.02F HX  84
NEW RICHMOND   MOSUNNY   78  57  47 SE7       30.02S
OSCEOLA        CLOUDY    78  61  57 SE3       30.04S
$$

WIZ003>005-009-010-017-018-302200-
NORTH CENTRAL WISCONSIN

CITY           SKY/WX    TMP DP  RH WIND       PRES   REMARKS
MANITOWISH WTR CLOUDY    77  54  44 SE3       30.06F
ARBOR VITAE    MOSUNNY   77  52  41 E3        30.07F
WOODRUFF       MOSUNNY   77  52  41 E3        30.07F
RHINELANDER    MOSUNNY   77  53  43 E9        30.08F
EAGLE RIVER    MOSUNNY   77  47  34 E6        30.08S
LAND O LAKES   MOSUNNY   77  49  36 SE6       30.09S
PHILLIPS       SUNNY     77  56  48 SE5       30.05S
TOMAHAWK       PTSUNNY   75  58  54 E5        30.07F
MEDFORD        PTSUNNY   75  58  55 CALM      30.05F
MERRILL        MOSUNNY   74  58  56 E9        30.07S
$$

WIZ029-030-035-036-043>047-302200-
CENTRAL WISCONSIN

CITY           SKY/WX    TMP DP  RH WIND       PRES   REMARKS
WAUSAU         MOSUNNY   75  55  49 E6        30.04F
MOSINEE        PTSUNNY   75  55  50 E8        30.07S
MARSHFIELD     MOSUNNY   79  60  52 S7        30.04F HX  80
STEVENS POINT  SUNNY     75  55  48 E9        30.06S
WAUPACA        MOSUNNY   79  56  45 E7        30.05S HX  80
WAUTOMA        PTSUNNY   78  61  55 NE10      30.03F HX  80
WISC RAPIDS    PTSUNNY   80  56  43 E8        30.05F HX  80
CAMP DOUGLAS   NOT AVBL
$$

WIZ011>013-019>022-031-037>040-048>050-302200-
NORTHEAST WISCONSIN

CITY           SKY/WX    TMP DP  RH WIND       PRES   REMARKS
ANTIGO         MOSUNNY   72  57  60 SE7       30.09S
SHAWANO        SUNNY     79  53  40 NE9       30.07S
OCONTO         SUNNY     75  53  45 E10       30.06S
STURGEON BAY   SUNNY     76  55  48 NE9       30.06F
GREEN BAY      SUNNY     76  57  51 NE12      30.05S
MANITOWOC      NOT AVBL
APPLETON       PTSUNNY   75  45  33 E12       30.04S
CLINTONVILLE   SUNNY     77  48  36 NE6       30.05F
OSHKOSH        SUNNY     76  56  49 E8        30.03F
$$

WIZ032>034-041-042-053>061-302200-
SOUTHWEST WISCONSIN

CITY           SKY/WX    TMP DP  RH WIND       PRES   REMARKS
LA CROSSE      MOSUNNY   81  64  56 S7        29.99F HX  82
SPARTA         SUNNY     80  62  54 E9        30.02F HX  81
VIROQUA        PTSUNNY   78  62  58 SE6       30.03F HX  80
BOSCOBEL       PTSUNNY   80  62  54 E5        30.00F HX  81
PRAIRIE DU CHI MOSUNNY   79  62  56 E7        29.99F HX  80
PLATTEVILLE    PTSUNNY   79  65  61 NE10      30.01F HX  81
$$

WIZ056-057-062-063-064-067-068-302200-
SOUTH CENTRAL WISCONSIN

CITY           SKY/WX    TMP DP  RH WIND       PRES   REMARKS
REEDSBURG      MOSUNNY   78  63  58 E5        30.01F HX  80
BARABOO/DELLS  PTSUNNY   77  61  57 E6        30.03F
LONE ROCK      NOT AVBL
MINERAL POINT  SUNNY     81  61  50 E6        30.02F HX  81
MADISON        PTSUNNY   77  60  55 E7        30.01S
MIDDLETON      PTSUNNY   80  61  52 E7        30.02F HX  81
WATERTOWN      MOSUNNY   77  58  52 NE8       30.01F
MONROE         MOSUNNY   79  63  57 NE8       30.00F HX  80
JANESVILLE     MOSUNNY   82  57  42 NE9       29.99  HX  82
$$

WIZ051-052-058>065-066-070>072-302200-
SOUTHEAST WISCONSIN

CITY           SKY/WX    TMP DP  RH WIND       PRES   REMARKS
MILWAUKEE      PTSUNNY   74  62  66 N14       30.01F
WAUKESHA       MOSUNNY   73  55  53 NE12      30.03S
MILWAUKEE/TIMM SUNNY     75  54  46 NE10      30.03S
RACINE         MOSUNNY   75  63  66 N10       30.03S
BURLINGTON     SUNNY     78  60  53 E6        30.01S
KENOSHA        MOSUNNY   76  62  62 NE10G16   30.01F
FOND DU LAC    MOSUNNY   79  55  43 NE9       30.03F
SHEBOYGAN      SUNNY     74  57  55 NE14      30.04F
WEST BEND      PTSUNNY   73  55  53 NE5       30.03S
JUNEAU         SUNNY     76  56  50 N10       30.04S
$$

LSZ147-162-302200-
LAKE SUPERIOR

STATION/POSITION TIME  TEMP    WIND        PRES    WAVE
                       AIR SEA DIR/SP/G            HT/PER
                 (UTC) (F)     (DEG/KT/KT) (MB)    (FT/S)
W MID LAKE BUOY  1950   65 65   80/  4/  6 1017.7F   0
DEVILS ISLAND    2000   67      50/  5/  5 1017.7F
PORT WING        2000   65      30/ 12/ 13 1017.6S
SAXON HARBOR     2040   71      50/ 11/ 13 1016.9F
$$

LMZ867-665-643>646-302200-
LAKE MICHIGAN

STATION/POSITION TIME  TEMP    WIND        PRES    WAVE
                       AIR SEA DIR/SP/G            HT/PER
                 (UTC) (F)     (DEG/KT/KT) (MB)    (FT/S)
CHAMBERS ISLAND  2000   72      10/  9/ 12 1018.3R
S GREEN BAY BUOY 2030   72 72   60/ 12/ 14 1017.3F
N MID LAKE BUOY  1950   70 70   20/ 10/ 12 1017.4F   1/ 3
NORTHPORT PIER   2000   76      70/  8/ 12 1017.9F
SISTER BAY       2006   81     100/ 11/ 16   N/A
ALGOMA LAKESHORE 1913           50/ 16/ 18   N/A
KEWAUNEE LAKESHO 2000   72      30/  7/ 13 1017.3S
SHEBOYGAN LAKESH 2000   66     350/ 10/ 11 1017.5S
PORT WASHINGTON  2000   72      50/ 10/ 12 1017.6
ATWATER BUOY     2000   67 65   20/ 10/ 12 1018.4F
MILWAUKEE LAKESH 2010   68      30/ 13/ 14   N/A
S MID LAKE BUOY  1950   69 73   50/  6/  8 1015.4F   2/ 4
KENOSHA   LAKESH 2000   70      30/  9/ 11 1015.9S
$$

TC  - TEMPERATURE IN CELSIUS
VSB - VISIBILITY IN STATUTE MILES
WCI - WIND CHILL INDEX
HX  - HEAT INDEX





USA.gov is the U.S. government's official web portal to all federal, state and local government web resources and services.